[[{"header":{"parameterUnit":"m.s-1","parameterCategory":1,"la1":30.2991,"la2":30.254,"lo1":-89.0895,"lo2":-89.0444,"dy":0.0017,"dx":0.0017,"nx":28,"ny":28,"refTime":"2024-04-17T03:00:00:Z","depth":0,"parameterNumber":2,"parameterNumberName":"U-component_of_WINDS"},"data":[0,0,0,0,0,0,0,0,0,0,0,0,0,0,0,0,0,0,0,0,0,0,0,0,0,0,0,0,0,0,0,0,0,0,0,0,0,0,0,0,0,0,0,0,0,0,0,0,0,0,0,0,0,0,0,0,0,0,-2.2041,-2.2042,0,-2.2107,-2.2108,-2.2109,-2.2107,-2.2106,-2.2105,-2.2104,-2.2174,-2.2177,-2.2179,0,0,0,0,0,0,0,0,0,0,0,0,0,-2.1916,-2.1918,-2.2041,-2.2042,-2.2042,-2.2107,-2.2108,-2.2109,-2.2107,-2.2106,-2.2105,-2.2104,-2.2173,-2.2176,-2.218,0,0,0,0,0,0,0,0,0,0,0,0,0,-2.1975,-2.1919,-2.2041,-2.2049,-2.2051,-2.2107,-2.2108,-2.2109,-2.2107,-2.2106,-2.2104,-2.2103,-2.2172,-2.2176,-2.218,-2.2233,0,0,-2.2193,-2.2194,0,0,0,0,0,0,0,0,-2.1971,-2.1979,-2.2047,-2.2049,-2.205,-2.2097,-2.2089,-2.2151,-2.2108,-2.2086,-2.2104,-2.2103,-2.215,-2.2156,-2.2171,-2.2236,-2.2239,-2.2193,-2.2195,-2.2197,-2.2198,0,0,0,0,0,0,0,-2.1967,-2.1977,-2.2067,-2.2048,-2.205,-2.2051,-2.2058,-2.2101,-2.2125,-2.2088,-2.2088,-2.2095,-2.215,-2.2167,-2.2173,-2.224,-2.2193,-2.2196,-2.2199,-2.2201,-2.2352,-2.2354,0,0,0,0,0,0,-2.1961,-2.1973,-2.2065,-2.2069,-2.2007,-2.2054,-2.2062,-2.2084,-2.2124,-2.2129,-2.2097,-2.2095,-2.2161,-2.2168,-2.2175,-2.2239,-2.2197,-2.2201,-2.2203,-2.2351,-2.2353,-2.2354,0,0,0,0,0,0,-2.1958,-2.1969,-2.2062,-2.2021,-2.2033,-2.2058,-2.2082,-2.2086,-2.2102,-2.2131,-2.2135,-2.2109,-2.216,-2.217,-2.2218,-2.2242,-2.2203,-2.2206,-2.2349,-2.2351,-2.2354,-2.2367,0,0,0,0,0,0,-2.1955,-2.1968,-2.1988,-2.2022,-2.2035,-2.2103,-2.2084,-2.2088,-2.2109,-2.2108,-2.2144,-2.2149,-2.216,-2.2212,-2.2222,-2.2246,-2.221,-2.2347,-2.235,-2.2353,-2.2365,-2.237,-2.2374,0,0,0,0,0,-2.195,-2.1989,-2.1989,-2.2,-2.206,-2.2105,-2.2113,-2.2124,-2.2111,-2.2131,-2.215,-2.2147,-2.2238,-2.2217,-2.2229,-2.2254,-2.2345,-2.2349,-2.2353,-2.2363,-2.2369,-2.2374,0,0,0,0,0,0,-2.1958,-2.1994,-2.1993,-2.2044,-2.2071,-2.2104,-2.213,-2.213,-2.2162,-2.2159,-2.2173,-2.2182,-2.223,-2.2248,-2.2224,-2.2308,-2.229,-2.2296,-2.2294,-2.23,-2.2305,-2.2299,-2.2213,0,0,0,0,0,-2.1965,-2.1998,-2.2028,-2.207,-2.2084,-2.2105,-2.2125,-2.2131,-2.216,-2.2172,-2.2194,-2.2223,-2.2258,-2.228,-2.2314,-2.2369,-2.2376,-2.2392,-2.2397,-2.24,-2.2405,-2.2435,-2.2442,-2.2366,-2.2366,-2.2366,0,0,-2.1981,-2.2005,-2.2025,-2.2072,-2.2094,-2.2128,-2.2114,-2.2151,-2.2176,-2.2178,-2.2224,-2.2242,-2.2276,-2.2327,-2.2351,-2.2343,-2.2428,-2.2405,-2.2408,-2.241,-2.2439,-2.2446,-2.2453,-2.2369,-2.2368,-2.2368,0,0,-2.2027,-2.2048,-2.2085,-2.2108,-2.2141,-2.2155,-2.2164,-2.2197,-2.2209,-2.2256,-2.2258,-2.229,-2.235,-2.2373,-2.2393,-2.245,-2.2449,-2.2461,-2.2484,-2.2514,-2.252,-2.2525,-2.2545,-2.2552,-2.2466,-2.2466,-2.2466,0,-2.2042,-2.2093,-2.2105,-2.2142,-2.2163,-2.2166,-2.2204,-2.2225,-2.2268,-2.2283,-2.2274,-2.2349,-2.2372,-2.2429,-2.2443,-2.246,-2.2471,-2.2456,-2.2518,-2.2523,-2.2529,-2.2547,-2.2555,-2.2467,-2.2467,-2.2467,-2.2467,0,-2.211,-2.2145,-2.2172,-2.2212,-2.2237,-2.2274,-2.2293,-2.2317,-2.2322,-2.2337,-2.2386,-2.2414,-2.2453,-2.2468,-2.2474,-2.2527,-2.2521,-2.2515,-2.2497,-2.2537,-2.2554,-2.2562,-2.2469,-2.2468,-2.2468,-2.2468,0,0,-2.216,-2.2207,-2.2217,-2.2235,-2.2273,-2.2301,-2.234,-2.2378,-2.2397,-2.2428,-2.246,-2.2512,-2.2507,-2.253,-2.2539,-2.2565,-2.2607,-2.2555,-2.2556,-2.2563,-2.2667,-2.267,-2.2678,-2.2608,-2.261,-2.2611,-2.2664,0,-2.2209,-2.2275,-2.2288,-2.2346,-2.2379,-2.2383,-2.2417,-2.2444,-2.246,-2.2492,-2.251,-2.2546,-2.2537,-2.255,-2.2577,-2.2597,-2.2628,-2.2593,-2.2638,-2.264,-2.2628,-2.2688,-2.2691,-2.274,-2.2671,-2.2672,-2.2673,0,-2.2274,-2.2304,-2.2366,-2.2399,-2.2414,-2.2443,-2.248,-2.251,-2.2542,-2.2552,-2.2578,-2.2584,-2.2625,-2.2608,-2.2665,-2.2641,-2.2661,-2.2674,-2.2676,-2.2679,-2.2657,-2.2691,-2.2756,-2.2762,-2.2685,-2.2684,-2.2683,0,-2.2302,-2.236,-2.2404,-2.242,-2.2461,-2.2481,-2.25,-2.253,-2.2553,-2.2585,-2.26,-2.2638,-2.2658,-2.2687,-2.2704,-2.269,-2.276,-2.2744,-2.277,-2.2769,-2.2782,-2.2781,-2.2849,-2.2798,-2.2798,-2.2798,-2.2798,0,-2.2354,-2.2391,-2.2417,-2.2444,-2.2486,-2.2502,-2.2544,-2.2562,-2.2589,-2.2621,-2.2628,-2.2657,-2.2679,-2.2712,-2.2726,-2.2771,-2.278,-2.279,-2.2793,-2.2788,-2.2787,-2.28,-2.2796,-2.28,-2.2799,-2.2799,-2.2799,0,-2.2392,-2.2411,-2.2459,-2.2494,-2.2504,-2.2534,-2.2564,-2.2591,-2.2608,-2.2648,-2.2658,-2.2685,-2.2724,-2.2744,-2.2794,-2.2803,-2.2854,-2.2856,-2.2842,-2.2843,-2.2867,-2.2864,-2.2945,-2.2956,-2.2899,-2.29,-2.29,0,-2.2423,-2.2452,-2.249,-2.2511,-2.2529,-2.2563,-2.2586,-2.2604,-2.2627,-2.2667,-2.2689,-2.2729,-2.2761,-2.2824,-2.2848,-2.2886,-2.2888,-2.2914,-2.2894,-2.2888,-2.2887,-2.2884,-2.2887,-2.2917,-2.2917,-2.2918,-2.2918,0,-2.2476,-2.2484,-2.2516,-2.2552,-2.2579,-2.2608,-2.2637,-2.2654,-2.2677,-2.2703,-2.2743,-2.2768,-2.2819,-2.2858,-2.2898,-2.2918,-2.2922,-2.2925,-2.2932,-2.2927,-2.2918,-2.2922,-2.285,-2.2922,-2.2922,-2.2921,-2.2921,-2.2921,-2.2511,-2.2536,-2.2567,-2.2602,-2.2626,-2.2653,-2.268,-2.2701,-2.2734,-2.2775,-2.2784,-2.2826,-2.2859,-2.2913,-2.2935,-2.2969,-2.2964,-2.2975,-2.2978,-2.298,-2.298,-2.2914,-2.2977,-2.2977,-2.2977,-2.2977,-2.2977,0,-2.2562,-2.2583,-2.2615,-2.2655,-2.2684,-2.2685,-2.2718,-2.2742,-2.2778,-2.2808,-2.284,-2.2886,-2.2925,-2.2953,-2.2992,-2.3014,-2.3017,-2.3024,-2.3022,-2.3026,-2.2983,-2.2972,-2.3021,-2.3021,-2.3021,-2.3021,-2.3021,-2.3021,-2.2592,-2.2635,-2.2647,-2.2703,-2.2723,-2.2764,-2.2782,-2.2808,-2.2831,-2.2882,-2.2914,-2.2932,-2.2962,-2.3004,-2.304,-2.3047,-2.3061,-2.3067,-2.3075,-2.3034,-2.3029,-2.3025,-2.3014,-2.3071,-2.3071,-2.3115,-2.3115,-2.3115]},{"header":{"parameterUnit":"m.s-1","parameterCategory":1,"la1":30.2991,"la2":30.254,"lo1":-89.0895,"lo2":-89.0444,"dy":0.0017,"dx":0.0017,"nx":28,"ny":28,"refTime":"2024-04-17T03:00:00:Z","depth":0,"parameterNumber":3,"parameterNumberName":"V-component_of_WINDS"},"data":[0,0,0,0,0,0,0,0,0,0,0,0,0,0,0,0,0,0,0,0,0,0,0,0,0,0,0,0,0,0,0,0,0,0,0,0,0,0,0,0,0,0,0,0,0,0,0,0,0,0,0,0,0,0,0,0,0,0,3.4925,3.4925,0,3.4915,3.4915,3.4915,3.4883,3.4883,3.4882,3.4881,3.4872,3.4873,3.4873,0,0,0,0,0,0,0,0,0,0,0,0,0,3.4917,3.4917,3.4925,3.4925,3.4925,3.4915,3.4915,3.4915,3.4884,3.4883,3.4882,3.4881,3.4872,3.4873,3.4873,0,0,0,0,0,0,0,0,0,0,0,0,0,3.4915,3.4917,3.4925,3.4908,3.4906,3.4915,3.4915,3.4915,3.4884,3.4883,3.4882,3.4881,3.4872,3.4873,3.4873,3.4898,0,0,3.4875,3.4875,0,0,0,0,0,0,0,0,3.4915,3.4916,3.491,3.4909,3.4907,3.4899,3.4909,3.4909,3.4884,3.4892,3.4881,3.488,3.4882,3.4882,3.4882,3.4898,3.4897,3.4875,3.4876,3.4876,3.4876,0,0,0,0,0,0,0,3.4916,3.4916,3.4921,3.491,3.4908,3.4901,3.4899,3.4909,3.4893,3.4891,3.4889,3.4888,3.4881,3.4882,3.4882,3.4897,3.4875,3.4876,3.4876,3.4876,3.4933,3.4934,0,0,0,0,0,0,3.4918,3.4916,3.4921,3.4921,3.4909,3.4902,3.49,3.4903,3.4893,3.4891,3.4889,3.4887,3.4881,3.4881,3.4882,3.491,3.4876,3.4876,3.4877,3.4932,3.4933,3.4934,0,0,0,0,0,0,3.4918,3.4919,3.4922,3.4918,3.4918,3.4903,3.4906,3.4903,3.4904,3.4891,3.4889,3.4893,3.4881,3.4881,3.4894,3.491,3.4877,3.4877,3.493,3.4932,3.4934,3.4968,0,0,0,0,0,0,3.4918,3.4919,3.4928,3.4918,3.4918,3.4935,3.4907,3.4904,3.4905,3.4902,3.4894,3.4892,3.488,3.4894,3.4895,3.491,3.4878,3.4929,3.4931,3.4933,3.4966,3.4971,3.4975,0,0,0,0,0,3.4918,3.4939,3.4929,3.493,3.4929,3.4936,3.4935,3.4921,3.4907,3.4916,3.4908,3.4892,3.4908,3.4895,3.4896,3.4912,3.4928,3.4931,3.4933,3.4963,3.497,3.4975,0,0,0,0,0,0,3.4951,3.4937,3.4926,3.4944,3.4941,3.493,3.4941,3.4928,3.4929,3.4926,3.4908,3.4907,3.4923,3.4919,3.4905,3.4936,3.4915,3.4918,3.4938,3.4944,3.4949,3.495,3.4878,0,0,0,0,0,3.496,3.4967,3.4954,3.4971,3.497,3.4956,3.4958,3.4947,3.4944,3.4942,3.4935,3.4933,3.4937,3.494,3.4943,3.4965,3.4963,3.4976,3.4981,3.4985,3.4988,3.4999,3.5005,3.4943,3.4943,3.4943,0,0,3.498,3.4973,3.4978,3.4978,3.4974,3.4981,3.4955,3.4964,3.4969,3.4944,3.4956,3.4951,3.4947,3.4964,3.4972,3.4961,3.5004,3.4988,3.4991,3.4992,3.5002,3.5008,3.5013,3.4944,3.4944,3.4944,0,0,3.502,3.5015,3.5029,3.5026,3.502,3.5011,3.5014,3.5005,3.5,3.5012,3.4994,3.4999,3.5007,3.5005,3.5005,3.5043,3.5029,3.5045,3.507,3.5081,3.5086,3.509,3.5104,3.511,3.5047,3.5048,3.5048,0,3.5045,3.5054,3.5038,3.5047,3.5048,3.5025,3.5039,3.5037,3.5033,3.5034,3.5022,3.5031,3.5027,3.5044,3.5053,3.5053,3.5057,3.5046,3.5087,3.5091,3.5095,3.5108,3.5113,3.505,3.5049,3.5049,3.5049,0,3.5086,3.5093,3.5105,3.5101,3.5103,3.5115,3.51,3.5104,3.5093,3.5084,3.5097,3.5091,3.5092,3.5095,3.5084,3.5111,3.5104,3.509,3.5069,3.5103,3.5115,3.512,3.5052,3.5052,3.5051,3.5051,0,0,3.5147,3.5133,3.5138,3.5136,3.5129,3.5134,3.5145,3.5146,3.5149,3.5148,3.5156,3.5163,3.515,3.515,3.5138,3.5148,3.5179,3.5132,3.5132,3.5141,3.5208,3.5219,3.5225,3.5169,3.517,3.5171,3.5208,0,3.5185,3.5202,3.5187,3.5208,3.5214,3.5192,3.5201,3.5198,3.519,3.5195,3.5186,3.5192,3.5173,3.5173,3.5181,3.5173,3.5192,3.517,3.5178,3.5178,3.518,3.5231,3.5243,3.5279,3.5213,3.5213,3.5214,0,3.5231,3.5231,3.5252,3.5243,3.5245,3.5254,3.5253,3.5258,3.5253,3.5247,3.5247,3.5233,3.5243,3.5222,3.5236,3.5221,3.5223,3.522,3.5221,3.5221,3.5199,3.5234,3.529,3.5296,3.5221,3.5221,3.522,0,3.5274,3.5279,3.5292,3.5291,3.5281,3.5287,3.5283,3.5278,3.5279,3.5279,3.528,3.5281,3.5282,3.5283,3.527,3.5256,3.5285,3.5263,3.5281,3.5281,3.5289,3.5289,3.5347,3.5289,3.5289,3.5289,3.5289,0,3.5318,3.5332,3.5311,3.532,3.5335,3.5317,3.5332,3.5326,3.5321,3.5328,3.5309,3.5315,3.5297,3.5302,3.5292,3.5305,3.5305,3.5301,3.5298,3.5303,3.5303,3.5304,3.5302,3.529,3.529,3.529,3.529,0,3.537,3.5356,3.5369,3.5358,3.5355,3.5366,3.5357,3.5364,3.5355,3.5364,3.5365,3.5351,3.5355,3.5342,3.5345,3.5337,3.5357,3.535,3.5358,3.5356,3.5375,3.5373,3.5436,3.5443,3.5381,3.5381,3.5382,0,3.5399,3.5409,3.5399,3.5401,3.5398,3.5403,3.5405,3.5388,3.539,3.5385,3.5393,3.5396,3.5398,3.5406,3.5396,3.5398,3.5391,3.5413,3.5392,3.5396,3.5392,3.5392,3.5393,3.5418,3.5419,3.5419,3.542,0,3.5453,3.5446,3.5448,3.5448,3.545,3.545,3.5448,3.5451,3.5433,3.5437,3.5441,3.5442,3.5444,3.5448,3.5447,3.5443,3.5429,3.5426,3.5431,3.5436,3.5441,3.5439,3.5371,3.5425,3.5425,3.5424,3.5424,3.5424,3.5495,3.5503,3.5496,3.55,3.5496,3.5495,3.5501,3.5492,3.5495,3.5496,3.5485,3.5492,3.5487,3.5485,3.5482,3.5487,3.5477,3.5483,3.5485,3.5487,3.549,3.5439,3.5487,3.5487,3.5486,3.5486,3.5486,0,3.5548,3.5543,3.5546,3.5544,3.5546,3.5531,3.5528,3.5532,3.5537,3.5533,3.5535,3.554,3.5543,3.5533,3.5535,3.5541,3.5534,3.5542,3.5541,3.5541,3.5499,3.5495,3.5547,3.5547,3.5547,3.5547,3.5547,3.5547,3.5577,3.5589,3.5581,3.5592,3.5586,3.5592,3.5591,3.559,3.5587,3.5593,3.5595,3.5588,3.5582,3.5583,3.5585,3.5582,3.5584,3.5594,3.5589,3.555,3.5544,3.5538,3.5535,3.5594,3.5594,3.563,3.5631,3.5631]}]]